Content
SEND FEEDBACK

Daily
Averages
Monthly
Summary
Canada

STE. DOROTHEE, QUEBEC


Home > North America > Canada > Quebec
Elevation: 75 feet     Latitude: 45 31N     Longitude: 73 47W

WEATHER
 
SELECT A DAY
Number of Records: 201,677;   Date Range: 1/1/95 - 10/29/14
 
SHARE

PRINT THIS DATA

[ ← Previous Day ]
WEATHER ALMANAC - JULY 22, 2014
[ Next Day → ]
[ °C ]   °F
Weather ElementAverageHighLow
Temperature77.5 °F84.2 °F (2:00 pm)69.8 °F (9:00 am)
Dewpoint65.9 °F68 °F (9:00 am)64.4 °F (12:00 am)
Humidity67.5 %88 % (6:00 am)47 % (8:00 pm)
Barometer30.02 in30.10 in (11:00 pm)29.84 in (8:00 am)
Wind Speed10.3 mph16.1 mph (9:00 am)
Wind Gust23 mph (11:00 am)
Weather ElementAverage
Visibility14.9 mi
Wind DirectionSSW (218.9 °)

Weather ElementTotal
Precipitation---
Cooling Degree Days12 (Base 65)
Growing Degree Days27 (Base 50)
Averaged from 28 records on July 22, 2014
WEATHER CONDITIONS BREAKOUT
WIND DIRECTION BREAKOUT
WEATHER BY HOUR - JULY 22, 2014
[ °C ]   °F
Local TimeTemperatureDewpointHumidityBarometerVisibilityWind DirectionWind SpeedGust SpeedPrecipitationEventsConditions
12:00 AM73.4 °F66.2 °F78 %30.08 in15.0 miSW (220°)6.9 mphClear
1:00 AM73.4 °F68.0 °F83 %30.08 in15.0 miSW (220°)6.9 mphClear
2:00 AM71.0 °F67.0 °F85 %30.08 in15.0 miSSW (210°)5.8 mph
2:00 AM71.6 °F68.0 °F88 %30.08 in15.0 miSSW (210°)5.8 mphClear
3:00 AM71.6 °F66.2 °F83 %30.07 in15.0 miSW (220°)8.1 mphClear
4:00 AM69.8 °F64.4 °F83 %30.07 in15.0 miSW (230°)5.8 mphClear
5:00 AM69.8 °F64.4 °F83 %30.07 in12.0 miSW (220°)10.4 mphPartly Cloudy
6:00 AM69.8 °F64.4 °F83 %30.07 in15.0 miSW (230°)6.9 mphMostly Cloudy
7:00 AM71.6 °F64.4 °F78 %30.07 in15.0 miSW (230°)12.7 mphScattered Clouds
8:00 AM74.0 °F65.0 °F65 %30.10 in15.0 miWSW (240°)10.4 mphClear
8:00 AM73.4 °F64.4 °F73 %30.10 in15.0 miWSW (250°)11.5 mphPartly Cloudy
9:00 AM75.2 °F66.2 °F73 %30.10 in15.0 miWSW (240°)6.9 mphPartly Cloudy
10:00 AM77.0 °F68.0 °F74 %30.07 in15.0 miSSW (210°)11.5 mphPartly Cloudy
11:00 AM78.8 °F66.2 °F65 %30.06 in15.0 miSSW (210°)12.7 mphPartly Cloudy
12:00 PM82.4 °F66.2 °F58 %30.04 in15.0 miSSW (210°)15.0 mphScattered Clouds
1:00 PM84.2 °F64.4 °F51 %30.02 in15.0 miSW (220°)16.1 mph23.0 mphMostly Cloudy
2:00 PM84.0 °F67.0 °F47 %30.01 in15.0 miSW (220°)10.4 mphScattered Clouds
2:00 PM84.2 °F66.2 °F55 %30.01 in15.0 miSW (220°)10.4 mphMostly Cloudy
3:00 PM82.4 °F66.2 °F58 %30.00 in15.0 miSSW (210°)12.7 mph19.6 mphMostly Cloudy
4:00 PM84.2 °F66.2 °F55 %29.97 in15.0 miSSW (210°)12.7 mphMostly Cloudy
5:00 PM84.2 °F64.4 °F51 %29.95 in15.0 miSW (230°)15.0 mphMostly Cloudy
6:00 PM84.2 °F64.4 °F51 %29.94 in15.0 miWSW (240°)15.0 mphMostly Cloudy
7:00 PM84.2 °F64.4 °F51 %29.93 in15.0 miSW (230°)12.7 mphMostly Cloudy
8:00 PM81.0 °F66.0 °F51 %29.91 in15.0 miSSW (210°)9.2 mphClear
8:00 PM80.6 °F66.2 °F61 %29.91 in15.0 miSSW (210°)9.2 mphMostly Cloudy
9:00 PM78.8 °F66.2 °F65 %29.91 in15.0 miSSW (200°)8.1 mphScattered Clouds
10:00 PM77.0 °F68.0 °F74 %29.88 in15.0 miSouth (190°)10.4 mphPartly Cloudy
11:00 PM77.0 °F66.2 °F69 %29.84 in15.0 miSouth (190°)10.4 mphScattered Clouds
Hourly data recorded from CYUL, located miles away from Ste. Dorothee, Quebec







STORIES FROM OUR PARTNERS